x

9432780 - Charleston, Or (chao3) Weather Station

5:30am - Sun 19th Feb 2017 All times are PST. -8 hours from GMT.

  • Wind
    6mph, 13mph gusts
  • Sea Temp 51°f
  • Sea Pressure 998.8mb
  • 9432780 - Charleston, Or
  • 9432780 - Charleston, Or

More Historic Weather Station data

Upgrade to MSW Pro to gain access to the past 30 days of data for over 8000 Wavebouys and Weather Stations around the globe.

Join Pro

Comparision Forecast

View Surf forecast
   
Sun 02/19 5:30am 6 13 mph 998.8mb 51f
5:24am 3 10 mph 998.7mb 51f
5:18am 3 13 mph 998.5mb 51f
5:12am 5 16 mph 998.6mb 51f
5:06am 5 13 mph 998.6mb 51f
5:00am 6 10 mph 998.7mb 51f
4:36am 5 11 mph 998.2mb 51f
4:30am 3 10 mph 998.3mb 51f
4:24am 3 8 mph 998.3mb 51f
4:18am 5 13 mph 998.3mb 51f
4:12am 3 13 mph 998.4mb 51f
4:06am 7 18 mph 998.5mb 51f
4:00am 3 15 mph 998.4mb 51f
3:36am 2 9 mph 998.1mb 51f
3:30am 3 9 mph 998.1mb 51f
3:24am 1 8 mph 998.1mb 51f
3:18am 2 6 mph 998.2mb 51f
3:12am 3 7 mph 998.2mb 51f
3:06am 2 11 mph 998.2mb 51f
3:00am 3 8 mph 998.1mb 51f
2:36am 3 11 mph 997.7mb 51f
2:30am 2 9 mph 997.8mb 51f
2:24am 3 9 mph 997.8mb 51f
2:18am 2 9 mph 997.6mb 51f
2:12am 2 7 mph 997.7mb 51f
2:06am 3 11 mph 997.7mb 51f
2:00am 3 7 mph 997.6mb 51f
1:36am 6 10 mph 997.4mb 51f
1:30am 5 13 mph 997.2mb 51f
1:24am 5 13 mph 997.2mb 51f
1:18am 6 16 mph 997.2mb 51f
1:12am 7 15 mph 997.3mb 51f
1:06am 3 17 mph 997.2mb 51f
1:00am 6 14 mph 997.4mb 51f
12:36am 5 14 mph 997.5mb 51f
12:30am 6 16 mph 997.5mb 51f
12:24am 5 14 mph 997.5mb 51f
12:18am 6 16 mph 997.5mb 51f
12:12am 7 15 mph 997.4mb 51f
12:06am 3 11 mph 997.5mb 51f
12:00am 5 11 mph 997.5mb 51f
Sat 02/18 11:36pm 5 13 mph 997.7mb 51f
11:30pm 3 9 mph 997.8mb 51f
11:24pm 5 14 mph 998mb 51f
11:18pm 3 11 mph 997.9mb 51f
11:12pm 6 11 mph 997.8mb 51f
11:06pm 3 16 mph 997.8mb 51f
11:00pm 2 10 mph 997.7mb 51f
10:36pm 2 6 mph 997.8mb 51f
10:30pm 2 6 mph 997.8mb 51f
10:24pm 3 7 mph 997.8mb 51f
10:18pm 5 11 mph 997.8mb 51f
10:12pm 2 7 mph 998mb 51f
10:06pm 2 7 mph 998mb 51f
10:00pm 2 6 mph 997.9mb 51f
9:36pm 3 7 mph 998.2mb 51f
9:30pm 1 6 mph 998.3mb 51f
9:24pm 1 7 mph 998.3mb 51f
9:18pm 2 6 mph 998.4mb 51f
9:12pm 3 6 mph 998.4mb 51f
9:06pm 3 7 mph 998.3mb 51f
9:00pm 2 7 mph 998.4mb 51f
8:36pm 2 7 mph 998.5mb 51f
8:30pm 2 8 mph 998.5mb 51f
8:24pm 5 10 mph 998.5mb 51f
8:18pm 2 9 mph 998.5mb 51f
8:12pm 3 7 mph 998.6mb 51f
8:06pm 2 8 mph 998.6mb 51f
8:00pm 3 11 mph 998.8mb 51f
7:36pm 2 5 mph 999mb 51f
7:30pm 5 10 mph 999.1mb 51f
7:24pm 6 10 mph 999.2mb 51f
7:18pm 3 9 mph 999.4mb 51f
7:12pm 5 13 mph 999.5mb 51f
7:06pm 5 13 mph 999.5mb 51f
7:00pm 6 9 mph 999.6mb 51f
6:36pm 2 8 mph 999.7mb 51f
6:30pm 2 15 mph 999.7mb 51f
6:24pm 3 7 mph 999.8mb 51f
6:18pm 2 5 mph 999.7mb 51f
6:12pm 2 7 mph 999.6mb 51f
6:06pm 1 6 mph 999.5mb 51f
6:00pm 1 7 mph 999.5mb 51f
5:36pm 3 10 mph 999.7mb 51f
5:30pm 2 3 mph 999.8mb 51f
5:24pm 2 3 mph 999.9mb 51f
5:18pm 2 6 mph 999.9mb 51f
5:12pm 2 5 mph 1000mb 51f
5:06pm 2 6 mph 1000.1mb 51f
5:00pm  -  5 mph 1000.2mb 51f
4:36pm 2 6 mph 1000.2mb 51f
4:30pm 2 6 mph 1000.2mb 51f
4:24pm 2 6 mph 1000.3mb 51f
4:18pm 5 7 mph 1000.2mb 51f
4:12pm 2 3 mph 1000.2mb 51f
4:06pm 2 6 mph 1000.3mb 51f
4:00pm 5 6 mph 1000.3mb 51f
3:36pm 6 10 mph 1000.2mb 51f
3:30pm 2 9 mph 1000.2mb 51f
3:24pm 5 10 mph 1000.2mb 51f
3:18pm 6 11 mph 1000.2mb 51f
3:12pm 6 11 mph 1000.3mb 51f
3:06pm 7 11 mph 1000.3mb 51f
3:00pm 6 10 mph 1000.3mb 51f
2:36pm 8 10 mph 1000.4mb 51f
2:30pm 7 9 mph 1000.4mb 51f
2:24pm 7 11 mph 1000.5mb 51f
2:18pm 7 10 mph 1000.6mb 51f
2:12pm 7 13 mph 1000.7mb 51f
2:06pm 9 11 mph 1000.7mb 51f
2:00pm 9 13 mph 1000.8mb 51f
1:36pm 6 13 mph 1000.8mb 51f
1:30pm 7 10 mph 1000.9mb 51f
1:24pm 9 13 mph 1001mb 51f
1:18pm 8 13 mph 1001.2mb 51f
1:12pm 5 11 mph 1001.2mb 51f
1:06pm 7 11 mph 1001.2mb 51f
1:00pm 8 13 mph 1001.1mb 51f
12:36pm 9 13 mph 1001.2mb 51f
12:30pm 10 13 mph 1001.3mb 51f
12:24pm 10 13 mph 1001.3mb 51f
12:18pm 10 13 mph 1001.2mb 51f
12:12pm 10 13 mph 1001.2mb 51f
12:06pm 10 13 mph 1001.3mb 51f
12:00pm 9 11 mph 1001.3mb 51f
11:36am 10 11 mph 1001.5mb 51f
11:30am 11 13 mph 1001.5mb 51f
11:24am 13 15 mph 1001.5mb 51f
11:18am 13 14 mph 1001.4mb 51f
11:12am 13 14 mph 1001.4mb 51f
11:06am 11 15 mph 1001.5mb 51f
11:00am 14 15 mph 1001.5mb 51f
10:36am 14 17 mph 1001.3mb 51f
10:30am 15 17 mph 1001.4mb 51f
10:24am 15 20 mph 1001.4mb 51f
10:18am 17 20 mph 1001.4mb 51f
10:12am 14 16 mph 1001.4mb 51f
10:06am 11 15 mph 1001.3mb 51f
10:00am 14 15 mph 1001.3mb 51f
9:36am 13 15 mph 1001.1mb 51f
9:30am 13 16 mph 1001.2mb 51f
9:24am 14 17 mph 1001.1mb 51f
9:18am 18 20 mph 1001mb 51f
9:12am 17 22 mph 1001mb 51f
9:06am 20 23 mph 1001mb 51f
9:00am 20 23 mph 1000.9mb 51f
8:36am 14 17 mph 1000.9mb 51f
8:30am 14 18 mph 1000.7mb 51f
8:24am 14 20 mph 1000.7mb 51f
8:18am 17 21 mph 1000.6mb 51f
8:12am 18 22 mph 1000.4mb 51f
8:06am 16 20 mph 1000.3mb 51f
8:00am 16 18 mph 1000.1mb 51f
7:36am 17 21 mph 999.8mb 51f
7:30am 15 20 mph 999.8mb 51f
7:24am 16 21 mph 999.7mb 51f
7:18am 17 21 mph 999.7mb 51f
7:12am 16 20 mph 999.6mb 51f
7:06am 16 18 mph 999.5mb 51f
7:00am 17 21 mph 999.4mb 51f
6:36am 21 23 mph 999.3mb 51f
6:30am 20 23 mph 999.3mb 51f
6:24am 22 25 mph 999.3mb 51f
6:18am 22 26 mph 999.3mb 51f
6:12am 21 25 mph 999.2mb 51f
6:06am 23 28 mph 999.3mb 51f
6:00am 22 25 mph 999.2mb 51f
5:36am 24 29 mph 999mb 51f
5:30am 24 29 mph 999mb 51f
5:24am 28 30 mph 999mb 51f
5:18am 22 26 mph 999mb 51f
5:12am 23 28 mph 998.8mb 51f
5:06am 23 28 mph 998.7mb 51f
5:00am 23 29 mph 998.7mb 51f
4:54am 24 29 mph 998.6mb 51f
4:48am 21 29 mph 998.5mb 51f
4:36am 25 30 mph 998.2mb 51f
4:30am 26 31 mph 998.1mb 51f
4:24am 26 30 mph 998.1mb 51f
4:18am 24 28 mph 998mb 51f
4:12am 22 26 mph 998mb 51f
4:06am 23 28 mph 997.9mb 51f
4:00am 21 26 mph 997.7mb 51f
3:54am 23 26 mph 997.7mb 51f
3:48am 23 28 mph 997.6mb 51f
3:36am 22 26 mph 997.5mb 51f
3:30am 21 24 mph 997.3mb 51f
3:24am 20 24 mph 997.3mb 51f
3:18am 21 24 mph 997.3mb 51f
3:12am 22 25 mph 997.2mb 51f
3:06am 22 25 mph 997.2mb 51f
3:00am 22 26 mph 997.3mb 51f
2:54am 20 24 mph 997.2mb 51f
2:48am 20 24 mph 997.2mb 51f
2:36am 21 24 mph 997.1mb 51f
2:30am 21 24 mph 997.1mb 51f
2:24am 22 25 mph 997.1mb 51f
2:18am 21 23 mph 997mb 51f
2:12am 22 23 mph 997mb 51f
2:06am 20 23 mph 997mb 51f
2:00am 20 23 mph 997mb 51f
1:54am 21 25 mph 997mb 51f
1:48am 22 25 mph 997mb 51f
1:36am 21 25 mph 996.8mb 51f
1:30am 22 23 mph 996.8mb 51f
1:24am 17 23 mph 996.8mb 51f
1:18am 20 22 mph 996.8mb 51f
1:12am 20 23 mph 996.7mb 51f
1:06am 21 24 mph 996.7mb 51f
1:00am 22 24 mph 996.7mb 51f
12:54am 21 23 mph 996.7mb 51f
12:48am 18 23 mph 996.7mb 51f
12:36am 21 23 mph 996.7mb 51f
12:30am 21 24 mph 996.7mb 51f
12:24am 21 24 mph 996.7mb 51f
12:18am 21 26 mph 996.6mb 51f
12:12am 22 25 mph 996.6mb 51f
12:06am 22 25 mph 996.5mb 51f
12:00am 20 24 mph 996.6mb 51f
Fri 02/17 11:54pm 20 23 mph 996.6mb 51f
11:48pm 20 22 mph 996.5mb 51f
11:36pm 18 23 mph 996.5mb 51f
11:30pm 16 22 mph 996.4mb 51f
11:24pm 18 22 mph 996.4mb 51f
11:18pm 16 21 mph 996.4mb 51f
11:12pm 13 21 mph 996.4mb 51f
11:06pm 18 21 mph 996.5mb 51f
11:00pm 14 16 mph 996.5mb 51f
10:54pm 10 18 mph 996.6mb 51f
10:48pm 13 18 mph 996.6mb 51f
10:36pm 13 17 mph 996.6mb 51f
10:30pm 13 18 mph 996.6mb 51f
10:24pm 11 17 mph 996.6mb 51f
10:18pm 10 18 mph 996.6mb 51f
10:12pm 13 18 mph 996.6mb 51f
10:06pm 13 20 mph 996.6mb 51f
10:00pm 14 20 mph 996.6mb 51f
9:54pm 10 18 mph 996.6mb 51f
9:48pm 10 18 mph 996.6mb 51f
9:36pm 8 18 mph 996.6mb 51f
9:30pm 11 18 mph 996.6mb 51f
9:24pm 8 22 mph 996.5mb 51f
9:18pm 11 20 mph 996.5mb 51f
9:12pm 13 20 mph 996.5mb 51f
9:06pm 11 21 mph 996.5mb 51f
9:00pm 13 20 mph 996.5mb 51f
8:54pm 13 20 mph 996.5mb 51f
8:48pm 14 20 mph 996.5mb 51f
8:36pm 10 20 mph 996.4mb 51f
8:30pm 13 18 mph 996.4mb 51f
8:24pm 13 20 mph 996.4mb 51f
8:18pm 14 22 mph 996.4mb 51f
8:12pm 13 21 mph 996.4mb 51f
8:06pm 11 21 mph 996.4mb 51f
8:00pm 9 21 mph 996.4mb 51f
7:54pm 13 21 mph 996.4mb 51f
7:48pm 14 23 mph 996.4mb 51f
7:36pm 13 23 mph 996.4mb 51f
7:30pm 13 21 mph 996.4mb 51f
7:24pm 13 21 mph 996.4mb 51f
7:18pm 14 21 mph 996.4mb 51f
7:12pm 15 22 mph 996.5mb 51f
7:06pm 14 22 mph 996.5mb 51f
7:00pm 14 21 mph 996.5mb 51f
6:54pm 13 23 mph 996.6mb 51f
6:48pm 15 23 mph 996.5mb 51f
6:36pm 11 22 mph 996.6mb 51f
6:30pm 16 22 mph 996.5mb 51f
6:24pm 9 21 mph 996.6mb 51f
6:18pm 11 21 mph 996.5mb 51f
6:12pm 13 21 mph 996.5mb 51f
6:06pm 13 21 mph 996.6mb 51f
6:00pm 15 22 mph 996.5mb 51f
5:54pm 15 22 mph 996.5mb 51f
5:48pm 15 22 mph 996.4mb 51f
5:36pm 18 24 mph 996.3mb 51f
5:30pm 14 23 mph 996.3mb 51f
5:24pm 15 24 mph 996.3mb 51f
5:18pm 15 25 mph 996.3mb 51f
5:12pm 14 23 mph 996.2mb 51f
5:06pm 14 22 mph 996.2mb 51f
5:00pm 17 24 mph 996.1mb 51f
4:36pm 15 24 mph 996.1mb 51f
4:30pm 15 23 mph 996.1mb 51f
4:24pm 13 22 mph 996mb 51f
4:18pm 15 22 mph 996mb 51f
4:12pm 16 25 mph 996.1mb 51f
4:06pm 17 24 mph 996.1mb 51f
4:00pm 15 22 mph 996.2mb 51f
3:54pm 10 22 mph 996.3mb 51f
3:48pm 11 22 mph 996.3mb 51f
3:36pm 16 23 mph 996.2mb 51f
3:30pm 11 23 mph 996.1mb 51f
3:24pm 14 25 mph 996.2mb 51f
3:18pm 16 25 mph 996.1mb 51f
3:12pm 14 26 mph 996.1mb 51f
3:06pm 14 25 mph 996.1mb 51f
3:00pm 13 22 mph 996.2mb 51f
2:54pm 11 23 mph 996.3mb 51f
2:48pm 14 22 mph 996.5mb 51f
2:36pm 10 21 mph 996.7mb 51f
2:30pm 14 21 mph 996.8mb 51f
2:24pm 13 22 mph 996.9mb 51f
2:18pm 11 22 mph 996.8mb 51f
2:12pm 13 22 mph 996.7mb 51f
2:06pm 11 21 mph 996.7mb 51f
2:00pm 13 22 mph 996.7mb 51f
1:54pm 14 24 mph 996.7mb 51f
1:48pm 16 24 mph 996.8mb 51f
1:36pm 9 20 mph 997mb 51f
1:30pm 15 24 mph 997.1mb 51f
1:24pm 15 22 mph 997.3mb 51f
1:18pm 15 22 mph 997.4mb 51f
1:12pm 14 21 mph 997.6mb 51f
1:06pm 15 22 mph 997.8mb 51f
1:00pm 14 20 mph 998mb 51f
12:54pm 8 18 mph 998.1mb 51f
12:48pm 10 20 mph 998.2mb 51f
12:36pm 8 18 mph 998.5mb 51f
12:30pm 8 18 mph 998.7mb 51f
12:24pm 11 18 mph 998.8mb 51f
12:18pm 6 18 mph 999mb 51f
12:12pm 9 17 mph 999.1mb 51f
12:06pm 8 17 mph 999.1mb 51f
12:00pm 11 17 mph 999.2mb 51f
11:54am 10 17 mph 999.2mb 51f
11:48am 9 16 mph 999.3mb 51f
11:36am 7 14 mph 999.5mb 51f
11:30am 8 16 mph 999.6mb 51f
11:24am 8 14 mph 999.7mb 51f
11:18am 8 15 mph 999.9mb 51f
11:12am 7 14 mph 999.9mb 51f
11:06am 8 14 mph 1000mb 51f
11:00am 8 13 mph 1000.1mb 51f
10:54am 8 14 mph 1000.1mb 51f
10:48am 6 11 mph 1000.2mb 51f
10:36am 6 10 mph 1000.6mb 51f
10:30am 5 10 mph 1000.7mb 51f
10:24am 5 8 mph 1000.9mb 51f
10:18am 6 9 mph 1001mb 51f
10:12am 6 7 mph 1001.2mb 51f
10:06am 6 7 mph 1001.4mb 51f
10:00am 6 7 mph 1001.5mb 51f
9:36am 5 6 mph 1001.9mb 51f
9:30am 3 5 mph 1002mb 51f
9:24am 2 3 mph 1002.1mb 51f
9:18am 5 6 mph 1002.1mb 51f
9:12am 5 6 mph 1002.1mb 51f
9:06am 5 6 mph 1002.1mb 51f
9:00am 3 5 mph 1002.2mb 51f
8:54am 3 5 mph 1002.3mb 51f
8:48am 3 5 mph 1002.4mb 51f
8:36am 5 6 mph 1002.4mb 51f
8:30am 5 6 mph 1002.5mb 51f
8:24am 3 6 mph 1002.5mb 51f
8:18am 2 3 mph 1002.5mb 51f
8:12am 3 5 mph 1002.6mb 51f
8:06am 2
mph
1002.5mb 51f
8:00am  -  2 mph 1002.5mb 51f
7:54am 1 3 mph 1002.5mb 51f
7:48am 3 5 mph 1002.5mb 51f
7:36am 3 5 mph 1002.6mb 51f
7:30am 3 8 mph 1002.8mb 51f
7:24am 7 8 mph 1002.8mb 51f
7:18am 6 8 mph 1002.8mb 51f
7:12am 6 7 mph 1002.8mb 51f
7:06am 6 8 mph 1002.9mb 51f
7:00am 6 7 mph 1003.1mb 51f
6:54am 5 6 mph 1003.2mb 51f
6:48am 6
mph
1003.3mb 51f
6:36am 5 6 mph 1003.6mb 51f
6:30am 3 6 mph 1003.9mb 51f
6:24am 3 6 mph 1004mb 51f
6:18am 6 7 mph 1004.1mb 51f
6:12am 5 6 mph 1004.3mb 51f
6:06am 3 5 mph 1004.4mb 51f
6:00am 3 5 mph 1004.5mb 51f
5:54am 2 5 mph 1004.5mb 51f
5:48am 3 5 mph 1004.6mb 51f
5:36am 3 6 mph 1004.8mb 51f
5:30am 5 7 mph 1004.9mb 51f
5:24am 5 6 mph 1005mb 51f
5:18am 5 7 mph 1005mb 51f
5:12am 6 8 mph 1005.1mb 51f
5:06am 6 8 mph 1005.2mb 51f
5:00am 5 6 mph 1005.3mb 51f
4:54am 5 6 mph 1005.3mb 51f
4:48am 3 6 mph 1005.3mb 51f
4:36am 5 6 mph 1005.4mb 51f
4:30am 3 6 mph 1005.4mb 51f
4:24am 3 6 mph 1005.4mb 51f
4:18am 3 5 mph 1005.3mb 51f
4:12am 2 6 mph 1005.4mb 51f
4:06am 2 3 mph 1005.5mb 51f
4:00am 3 6 mph 1005.4mb 51f
3:54am 5 8 mph 1005.4mb 51f
3:48am 7 9 mph 1005.5mb 51f
3:36am 5 9 mph 1005.7mb 51f
3:30am 5 6 mph 1005.8mb 51f
3:24am 3 5 mph 1005.8mb 51f
3:18am 3 7 mph 1005.8mb 51f
3:12am 5 7 mph 1005.9mb 51f
3:06am 5 6 mph 1006mb 51f
3:00am 5 6 mph 1006.1mb 51f
2:54am 2 5 mph 1006.1mb 51f
2:48am 3 6 mph 1006.1mb 51f
2:36am 6 9 mph 1006.1mb 51f
2:30am 6 7 mph 1006.1mb 51f
2:24am 5
mph
1006.2mb 51f
2:18am 5 6 mph 1006.5mb 51f
2:12am 2 5 mph 1006.5mb 51f
2:06am 3 5 mph 1006.5mb 51f
2:00am 5 6 mph 1006.6mb 51f
1:54am 2 6 mph 1006.7mb 51f
1:48am 5 6 mph 1006.8mb 51f
1:36am 3 7 mph 1006.9mb 51f
1:30am 3 6 mph 1007.1mb 51f
1:24am 3 5 mph 1007.3mb 51f
1:18am 2 3 mph 1007.4mb 51f
1:12am 3 5 mph 1007.6mb 51f
1:06am 2 3 mph 1007.8mb 51f
1:00am 2 3 mph 1007.8mb 51f
12:54am 1 2 mph 1007.9mb 51f
12:48am 1 3 mph 1008mb 51f
12:36am 1 3 mph 1008.1mb 51f
12:30am 2 3 mph 1008.2mb 51f
12:24am 2 3 mph 1008.3mb 52f
12:18am 2 3 mph 1008.3mb 52f
12:12am 2 3 mph 1008.4mb 52f
12:06am 2 3 mph 1008.5mb 52f
12:00am 2 5 mph 1008.6mb 52f
Thu 02/16 11:54pm 2 5 mph 1008.6mb 52f
11:48pm 2 6 mph 1008.7mb 52f
11:36pm 2 5 mph 1008.8mb 52f
11:30pm 1 3 mph 1008.9mb 52f
11:24pm 1 5 mph 1008.9mb 52f
11:18pm 2 6 mph 1009mb 52f
11:12pm 1 3 mph 1009mb 52f
11:06pm 1 3 mph 1009mb 52f
11:00pm 1 3 mph 1009.1mb 52f
10:36pm 2 3 mph 1009.6mb 52f
10:30pm 1 3 mph 1009.6mb 52f
10:24pm 1 2 mph 1009.5mb 52f
10:18pm 1 2 mph 1009.5mb 52f
10:12pm 2 5 mph 1009.4mb 52f
10:06pm 2 5 mph 1009.5mb 52f
10:00pm  -  2 mph 1009.4mb 52f
9:36pm  -  3 mph 1009.6mb 52f
9:30pm 1 5 mph 1009.6mb 52f
9:24pm  -  2 mph 1009.6mb 52f
9:18pm 1 5 mph 1009.7mb 52f
9:12pm 2 6 mph 1009.7mb 52f
9:06pm 2 3 mph 1009.7mb 52f
9:00pm 2 3 mph 1009.7mb 52f
8:54pm 1 3 mph 1009.7mb 52f
8:48pm 1 2 mph 1009.6mb 52f
8:36pm 1 3 mph 1009.6mb 52f
8:30pm 2 3 mph 1009.7mb 52f
8:24pm  -  5 mph 1009.7mb 52f
8:18pm 2 7 mph 1009.7mb 52f
8:12pm 2 5 mph 1009.7mb 52f
8:06pm 3 7 mph 1009.6mb 52f
8:00pm 3 7 mph 1009.7mb 52f
7:54pm 3 10 mph 1009.7mb 52f
7:48pm 6 11 mph 1009.7mb 52f
7:36pm 5 8 mph 1009.6mb 52f
7:30pm 3 9 mph 1009.5mb 52f
7:24pm 3 11 mph 1009.5mb 52f
7:18pm 2 9 mph 1009.3mb 51f
7:12pm 5 10 mph 1009.3mb 52f
7:06pm 5 10 mph 1009.3mb 52f
7:00pm 1 5 mph 1009.2mb 52f
6:54pm 2 6 mph 1009.2mb 52f
6:48pm 1 6 mph 1009.2mb 51f
6:36pm 2 7 mph 1009.2mb 51f
6:30pm 1 8 mph 1009.2mb 52f
6:24pm 3 9 mph 1009.2mb 51f
6:18pm 2 6 mph 1009.2mb 51f
6:12pm 2 6 mph 1009.1mb 51f
6:06pm 2 5 mph 1009mb 51f
6:00pm 2 6 mph 1009mb 52f
5:54pm 2 5 mph 1009mb 52f
5:48pm 2 5 mph 1008.9mb 52f
5:36pm 2 10 mph 1008.6mb 51f
5:30pm 2 7 mph 1008.5mb 51f
5:24pm 2 6 mph 1008.4mb 51f
5:18pm 2 6 mph 1008.3mb 51f
5:12pm 2 3 mph 1008.2mb 51f
5:06pm 2 3 mph 1008.1mb 51f
5:00pm  -  2 mph 1008mb 51f
4:54pm  -  3 mph 1007.9mb 51f
4:48pm 2 5 mph 1007.9mb 52f
4:36pm 2 6 mph 1007.8mb 51f
4:30pm 3 7 mph 1007.8mb 51f
4:24pm 1 6 mph 1007.8mb 51f
4:18pm 2 10 mph 1007.9mb 51f
4:12pm 5 14 mph 1007.9mb 51f
4:06pm 7 15 mph 1008mb 51f
4:00pm 8 15 mph 1007.8mb 51f
3:54pm 10 14 mph 1007.7mb 51f
3:48pm 6 16 mph 1007.7mb 51f
3:36pm 5 11 mph 1007.6mb 51f
3:30pm 7 13 mph 1007.4mb 51f
3:24pm 6 11 mph 1007.4mb 51f
3:18pm 6 15 mph 1007.1mb 51f
3:12pm 6 11 mph 1007mb 51f
3:06pm 5 18 mph 1006.8mb 51f
3:00pm 8 16 mph 1006.6mb 51f
2:54pm 10 17 mph 1006.4mb 51f
2:48pm 7 11 mph 1006.2mb 51f
2:36pm 6 9 mph 1006mb 51f
2:30pm 3 10 mph 1005.9mb 51f
2:24pm 5 10 mph 1006mb 51f
2:18pm 6 18 mph 1005.8mb 51f
2:12pm 6 16 mph 1005.8mb 51f
2:06pm 6 13 mph 1005.7mb 51f
2:00pm 6 15 mph 1005.7mb 51f
1:54pm 5 14 mph 1005.5mb 51f
1:48pm 6 15 mph 1005.4mb 51f
1:36pm 5 11 mph 1005mb 51f
1:30pm 7 13 mph 1004.9mb 51f
1:24pm 6 14 mph 1004.8mb 51f
1:18pm 7 18 mph 1004.7mb 51f
1:12pm 6 15 mph 1004.6mb 51f
1:06pm 7 13 mph 1004.5mb 51f
1:00pm 8 15 mph 1004.3mb 51f
12:54pm 6 15 mph 1004.2mb 51f
12:48pm 7 15 mph 1004.1mb 51f
12:36pm 6 13 mph 1003.9mb 51f
12:30pm 3 16 mph 1003.8mb 51f
12:24pm 5 10 mph 1003.7mb 51f
12:18pm 5 11 mph 1003.7mb 51f
12:12pm 6 11 mph 1003.6mb 51f
12:06pm 8 14 mph 1003.5mb 51f
12:00pm 6 16 mph 1003.5mb 51f
11:54am 10 16 mph 1003.3mb 51f
11:48am 6 14 mph 1003.2mb 51f
11:36am 5 17 mph 1003.1mb 51f
11:30am 3 16 mph 1002.9mb 51f
11:24am 6 11 mph 1002.7mb 51f
11:18am 6 15 mph 1002.7mb 51f
11:12am 7 13 mph 1002.6mb 51f
11:06am 7 16 mph 1002.6mb 51f
11:00am 6 15 mph 1002.5mb 51f
10:54am 6 14 mph 1002.1mb 51f
10:48am 8 14 mph 1002.1mb 51f
10:36am 6 20 mph 1001.9mb 51f
10:30am 8 17 mph 1001.9mb 51f
10:24am 8 15 mph 1001.8mb 51f
10:18am 3 14 mph 1001.6mb 51f
10:12am 8 14 mph 1001.4mb 51f
10:06am 5 9 mph 1001.5mb 51f
10:00am 3 9 mph 1001.4mb 51f
9:54am 5 15 mph 1001.2mb 51f
9:48am 5 14 mph 1001.1mb 51f
9:36am 5 11 mph 1000.9mb 51f
9:30am 7 21 mph 1000.9mb 51f
9:24am 6 15 mph 1000.8mb 51f
9:18am 6 11 mph 1000.7mb 51f
9:12am 3 13 mph 1000.5mb 51f
9:06am 8 15 mph 1000.3mb 51f
9:00am 6 11 mph 1000.2mb 51f
8:54am 8 25 mph 1000.1mb 51f
8:48am 6 14 mph 1000.1mb 51f
8:36am 6 24 mph 999.9mb 51f
8:30am 8 15 mph 999.9mb 51f
8:24am 8 18 mph 999.6mb 51f
8:18am 7 20 mph 999.4mb 51f
8:12am 8 22 mph 999.1mb 51f
8:06am 6 14 mph 998.7mb 51f
8:00am 5 16 mph 998.5mb 51f
7:54am 5 14 mph 998.1mb 51f
7:48am 3 8 mph 997.9mb 51f
7:36am 2 6 mph 997.5mb 51f
7:30am 2 10 mph 997.5mb 51f
7:24am 2 6 mph 997.3mb 51f
7:18am 1 6 mph 997.6mb 51f
7:12am 1 9 mph 998mb 51f
7:06am 2 5 mph 997.9mb 51f
7:00am 5 13 mph 997.7mb 51f
6:54am 6 14 mph 997.6mb 51f
6:48am 5 15 mph 997.5mb 51f
6:36am 6 9 mph 997.5mb 51f
6:30am 5 9 mph 997.4mb 51f
6:24am 1 6 mph 997.6mb 51f
6:18am 2 3 mph 997.6mb 51f
6:12am 1 5 mph 997.6mb 51f
6:06am 2 7 mph 997.6mb 51f
6:00am 2 5 mph 997.6mb 51f
5:54am 2 3 mph 997.4mb 51f
5:48am  -  5 mph 997.4mb 51f
5:36am 2 6 mph 997.7mb 51f
5:30am 2 9 mph 997.8mb 51f
5:24am 5 9 mph 997.9mb 51f
5:18am 3 7 mph 998mb 51f
5:12am 3 9 mph 998.1mb 51f
5:06am 2 8 mph 998.3mb 51f
5:00am 3 10 mph 998.4mb 51f
4:54am 2 9 mph 998.4mb 51f
4:48am 3 8 mph 998.6mb 51f
4:36am 5 9 mph 998.5mb 51f
4:30am 5 9 mph 998.5mb 51f
4:24am 3 9 mph 998.6mb 51f
4:18am 3 10 mph 998.6mb 51f
4:12am 3 11 mph 998.7mb 51f
4:06am 3 9 mph 998.6mb 51f
4:00am 3 9 mph 998.6mb 51f
3:54am 3 7 mph 998.6mb 51f
3:48am 3 8 mph 998.6mb 51f
3:36am 5 10 mph 998.5mb 51f
3:30am 5 10 mph 998.7mb 51f
3:24am 5 11 mph 998.8mb 51f
3:18am 5 11 mph 999mb 51f
3:12am 6 14 mph 999.2mb 51f
3:06am 7 13 mph 999mb 51f
3:00am 3 9 mph 999.1mb 51f
2:54am 6 13 mph 999.3mb 51f
2:48am 6 14 mph 999.3mb 51f
2:36am 6 15 mph 999.2mb 51f
2:30am 5 9 mph 999.2mb 51f
2:24am 5 9 mph 999.5mb 51f
2:18am 6 13 mph 999.1mb 51f
2:12am 6 13 mph 998.9mb 51f
2:06am 6 15 mph 999.1mb 51f
2:00am 6 17 mph 999.5mb 51f
1:54am 5 16 mph 999.2mb 51f
1:48am 7 14 mph 999mb 51f
1:36am 6 14 mph 998.3mb 51f
1:30am 6 14 mph 998.5mb 51f
1:24am 6 17 mph 999mb 51f
1:18am 5 21 mph 999.2mb 51f
1:12am 8 17 mph 999.4mb 51f
1:06am 6 16 mph 999.6mb 51f
1:00am 7 14 mph 999.6mb 51f
12:54am 5 15 mph 999.6mb 51f
12:48am 7 23 mph 999.7mb 51f
12:36am 10 16 mph 999.9mb 51f
12:30am 3 15 mph 999.4mb 51f
12:24am 6 17 mph 999.2mb 51f
12:18am 9 17 mph 998.8mb 51f
12:12am 6 16 mph 998.7mb 51f
12:06am 6 23 mph 998.8mb 51f
12:00am 6 10 mph 998.8mb 51f
Wed 02/15 11:54pm 5 14 mph 999mb 51f
11:48pm 6 14 mph 999mb 51f
11:36pm 6 15 mph 999mb 51f
11:30pm 5 23 mph 998.9mb 51f
11:24pm 3 15 mph 998.9mb 51f
11:18pm 3 11 mph 999.1mb 51f
11:12pm 6 17 mph 999.3mb 51f
11:06pm 6 14 mph 999.6mb 51f
11:00pm 6 23 mph 999.3mb 51f
10:54pm 5 15 mph 999.6mb 51f
10:48pm 6 20 mph 999.3mb 51f
10:36pm 6 13 mph 998.9mb 51f
10:30pm 5 15 mph 998.9mb 51f
10:24pm 7 14 mph 999mb 51f
10:18pm 6 15 mph 998.7mb 51f
10:12pm 8 20 mph 998.7mb 51f
10:06pm 6 20 mph 998.9mb 51f
10:00pm 8 20 mph 999.2mb 51f
9:54pm 7 17 mph 999.4mb 51f
9:48pm 6 13 mph 999.3mb 51f
9:36pm 6 13 mph 999.8mb 51f
9:30pm 5 9 mph 1000.1mb 51f
9:24pm 3 10 mph 999.8mb 51f
9:18pm 5 13 mph 999.7mb 51f
9:12pm 2 8 mph 999.7mb 51f
9:06pm 5 9 mph 999.7mb 51f
9:00pm 3 8 mph 999.8mb 51f
8:54pm 3 8 mph 999.9mb 51f
8:48pm 2 7 mph 1000.1mb 51f
8:36pm 2 7 mph 1000.3mb 51f
8:30pm 3 8 mph 1000.3mb 51f
8:24pm 3 7 mph 1000.5mb 51f
8:18pm 2 3 mph 1000.6mb 51f
8:12pm  -  3 mph 1000.8mb 51f
8:06pm 1 5 mph 1000.8mb 51f
8:00pm 3 7 mph 1000.9mb 51f
7:54pm 3 7 mph 1000.9mb 51f
7:48pm 3 11 mph 1000.8mb 51f
7:36pm 3 7 mph 1000.6mb 51f
7:30pm 3 10 mph 1000.6mb 51f
7:24pm 3 10 mph 1001.1mb 51f
7:18pm 3 9 mph 1001.3mb 51f
7:12pm 3 8 mph 1001.3mb 51f
7:06pm 3 11 mph 1001.3mb 51f
7:00pm 5 10 mph 1001.3mb 51f
6:54pm 3 15 mph 1001.3mb 51f
6:48pm 3 8 mph 1001.1mb 51f
6:36pm 5 11 mph 1001.3mb 51f
6:30pm 5 9 mph 1001.5mb 51f
6:24pm 3 9 mph 1001.7mb 51f
6:18pm 3 10 mph 1001.7mb 51f
6:12pm 5 11 mph 1001.6mb 51f
6:06pm 6 15 mph 1001.8mb 51f
6:00pm 3 9 mph 1001.7mb 51f
5:54pm 5 9 mph 1001.9mb 51f
5:48pm 5 10 mph 1002mb 51f
5:36pm 1 9 mph 1002.4mb 51f
5:30pm 3 8 mph 1002.6mb 51f
5:24pm 1 7 mph 1002.8mb 51f
5:18pm 3 9 mph 1002.6mb 51f
5:12pm 3 8 mph 1002.6mb 51f
5:06pm 3 8 mph 1002.6mb 51f
5:00pm 3 7 mph 1002.7mb 51f
4:36pm 6 9 mph 1002.9mb 51f
4:30pm 5 9 mph 1002.9mb 51f
4:24pm 2 6 mph 1002.9mb 51f
4:18pm 2 8 mph 1003mb 51f
4:12pm 5 9 mph 1003.3mb 51f
4:06pm 3 8 mph 1003.3mb 51f
4:00pm 6 9 mph 1003.2mb 51f
3:54pm 2 7 mph 1003.2mb 51f
3:48pm 2 5 mph 1003.2mb 51f
3:36pm 2 8 mph 1003.4mb 51f
3:30pm 2 8 mph 1003.3mb 51f
3:24pm 1 7 mph 1003.2mb 51f
3:18pm 2 8 mph 1003.2mb 51f
3:12pm 2 9 mph 1003.5mb 51f
3:06pm 3 7 mph 1003.7mb 51f
3:00pm 2 8 mph 1003.8mb 51f
2:54pm 3 13 mph 1003.7mb 51f
2:48pm 3 8 mph 1003.5mb 51f
2:36pm 1 11 mph 1003.7mb 51f
2:30pm 3 10 mph 1003.5mb 51f